| time (UTC) | temp C | wind direction | speed KPH | gust KPH | rain 1hr cm | rain 24hr cm | rain mn cm | humidity % | barometer mb |
| 20260505114525 | 17 | 222 | 3.2 | 3.2 | 0.00 | 0.00 | 0.00 | 77 | 1007.0 |
| 20260505114022 | 17 | 209 | 9.7 | 11.3 | 0.00 | 0.00 | 0.00 | 76 | 1007.1 |
| 20260505113518 | 17 | 191 | 6.4 | 9.7 | 0.00 | 0.00 | 0.00 | 76 | 1007.0 |
| 20260505113014 | 17 | 220 | 11.3 | 12.9 | 0.00 | 0.00 | 0.00 | 76 | 1006.8 |
| 20260505112510 | 17 | 203 | 4.8 | 4.8 | 0.00 | 0.00 | 0.00 | 76 | 1006.6 |
| 20260505112009 | 17 | 160 | 6.4 | 9.7 | 0.00 | 0.00 | 0.00 | 76 | 1006.4 |
| 20260505111502 | 17 | 176 | 3.2 | 3.2 | 0.00 | 0.00 | 0.00 | 76 | 1006.6 |
| 20260505110959 | 17 | 231 | 4.8 | 6.4 | 0.00 | 0.00 | 0.00 | 75 | 1006.3 |
| 20260505110455 | 17 | 206 | 4.8 | 4.8 | 0.00 | 0.00 | 0.00 | 76 | 1006.3 |
| 20260505101927 | 17 | 195 | 8.0 | 9.7 | 0.00 | 0.00 | 0.00 | 74 | 1006.3 |
| 20260505101421 | 17 | 215 | 6.4 | 11.3 | 0.00 | 0.00 | 0.00 | 74 | 1006.4 |
| 20260505100917 | 17 | 237 | 9.7 | 11.3 | 0.00 | 0.00 | 0.00 | 73 | 1006.4 |
| 20260505100414 | 17 | 198 | 8.0 | 9.7 | 0.00 | 0.00 | 0.00 | 73 | 1006.4 |
| 20260505095909 | 17 | 217 | 11.3 | 12.9 | 0.00 | 0.00 | 0.00 | 73 | 1006.1 |
| 20260505095407 | 17 | 203 | 9.7 | 11.3 | 0.00 | 0.00 | 0.00 | 72 | 1006.1 |
| 20260505094903 | 17 | 198 | 11.3 | 12.9 | 0.00 | 0.00 | 0.00 | 72 | 1006.1 |
| 20260505094400 | 17 | 200 | 6.4 | 6.4 | 0.00 | 0.00 | 0.00 | 72 | 1006.1 |
| 20260505093856 | 17 | 219 | 9.7 | 11.3 | 0.00 | 0.00 | 0.00 | 72 | 1006.0 |
| 20260505093353 | 17 | 193 | 9.7 | 12.9 | 0.00 | 0.00 | 0.00 | 72 | 1005.9 |
| 20260505092850 | 17 | 233 | 9.7 | 11.3 | 0.00 | 0.00 | 0.00 | 71 | 1006.0 |
| 20260505092348 | 17 | 206 | 8.0 | 9.7 | 0.00 | 0.00 | 0.00 | 71 | 1006.0 |
| 20260505091845 | 17 | 200 | 8.0 | 9.7 | 0.00 | 0.00 | 0.00 | 71 | 1005.8 |
| 20260505091343 | 17 | 221 | 11.3 | 12.9 | 0.00 | 0.00 | 0.00 | 71 | 1005.6 |
| 20260505090841 | 17 | 185 | 9.7 | 11.3 | 0.00 | 0.00 | 0.00 | 71 | 1005.8 |
| 20260505090339 | 17 | 213 | 11.3 | 12.9 | 0.00 | 0.00 | 0.00 | 71 | 1005.4 |
| 20260505085836 | 17 | 195 | 14.5 | 17.7 | 0.00 | 0.00 | 0.00 | 71 | 1005.5 |
| 20260505085334 | 17 | 205 | 14.5 | 16.1 | 0.00 | 0.00 | 0.00 | 71 | 1005.4 |
| 20260505084831 | 17 | 226 | 9.7 | 11.3 | 0.00 | 0.00 | 0.00 | 71 | 1005.7 |
| 20260505084330 | 17 | 224 | 12.9 | 14.5 | 0.00 | 0.00 | 0.00 | 70 | 1005.5 |
| 20260505083826 | 17 | 220 | 12.9 | 14.5 | 0.00 | 0.00 | 0.00 | 71 | 1005.6 |
| 20260505083324 | 17 | 190 | 8.0 | 9.7 | 0.00 | 0.00 | 0.00 | 71 | 1005.7 |
| 20260505082820 | 17 | 232 | 8.0 | 9.7 | 0.00 | 0.00 | 0.00 | 71 | 1005.6 |
| 20260505082317 | 17 | 218 | 8.0 | 9.7 | 0.00 | 0.00 | 0.00 | 71 | 1005.6 |
| 20260505081813 | 17 | 202 | 17.7 | 24.1 | 0.00 | 0.00 | 0.00 | 70 | 1005.7 |
| 20260505081310 | 17 | 195 | 12.9 | 16.1 | 0.00 | 0.00 | 0.00 | 70 | 1005.9 |
| 20260505080807 | 17 | 201 | 14.5 | 14.5 | 0.00 | 0.00 | 0.00 | 69 | 1005.9 |
| 20260505080303 | 17 | 198 | 11.3 | 14.5 | 0.00 | 0.00 | 0.00 | 69 | 1005.9 |
| 20260505075758 | 17 | 239 | 8.0 | 9.7 | 0.00 | 0.00 | 0.00 | 69 | 1006.0 |
| 20260505075255 | 17 | 226 | 9.7 | 11.3 | 0.00 | 0.00 | 0.00 | 69 | 1006.0 |
| 20260505074753 | 17 | 193 | 9.7 | 11.3 | 0.00 | 0.00 | 0.00 | 69 | 1006.0 |
| 20260505074250 | 17 | 189 | 6.4 | 6.4 | 0.00 | 0.00 | 0.00 | 69 | 1005.9 |
| 20260505073748 | 17 | 207 | 6.4 | 6.4 | 0.00 | 0.00 | 0.00 | 69 | 1006.0 |
| 20260505073245 | 17 | 192 | 8.0 | 11.3 | 0.00 | 0.00 | 0.00 | 69 | 1006.1 |
| 20260505072742 | 17 | 207 | 3.2 | 3.2 | 0.00 | 0.00 | 0.00 | 69 | 1006.1 |
| 20260505072238 | 17 | 222 | 6.4 | 6.4 | 0.00 | 0.00 | 0.00 | 69 | 1006.5 |
| 20260505071734 | 18 | 186 | 4.8 | 6.4 | 0.00 | 0.00 | 0.00 | 68 | 1006.8 |
| 20260505071230 | 18 | 206 | 6.4 | 6.4 | 0.00 | 0.00 | 0.00 | 68 | 1007.0 |
| 20260505070728 | 18 | 207 | 9.7 | 12.9 | 0.00 | 0.00 | 0.00 | 67 | 1006.9 |
| 20260505070224 | 18 | 210 | 4.8 | 4.8 | 0.00 | 0.00 | 0.00 | 68 | 1006.9 |
| 20260505065720 | 18 | 207 | 6.4 | 9.7 | 0.00 | 0.00 | 0.00 | 68 | 1007.1 |
| 20260505065217 | 18 | 170 | 1.6 | 3.2 | 0.00 | 0.00 | 0.00 | 68 | 1007.3 |
| 20260505064714 | 18 | 204 | 3.2 | 4.8 | 0.00 | 0.00 | 0.00 | 67 | 1007.5 |
| 20260505064212 | 18 | 227 | 1.6 | 1.6 | 0.00 | 0.00 | 0.00 | 67 | 1007.1 |
| 20260505063709 | 18 | 207 | 4.8 | 6.4 | 0.00 | 0.00 | 0.00 | 67 | 1007.1 |
| 20260505063205 | 18 | 195 | 6.4 | 6.4 | 0.00 | 0.00 | 0.00 | 66 | 1007.4 |
| 20260505062701 | 18 | 200 | 8.0 | 9.7 | 0.00 | 0.00 | 0.00 | 66 | 1007.5 |
| 20260505062159 | 18 | 209 | 9.7 | 11.3 | 0.00 | 0.00 | 0.00 | 65 | 1007.5 |
| 20260505061656 | 18 | 229 | 6.4 | 6.4 | 0.00 | 0.00 | 0.00 | 65 | 1007.6 |
| 20260505061154 | 18 | 212 | 9.7 | 11.3 | 0.00 | 0.00 | 0.00 | 65 | 1007.5 |
| 20260505060651 | 18 | 216 | 9.7 | 12.9 | 0.00 | 0.00 | 0.00 | 64 | 1007.5 |
| 20260505060148 | 18 | 216 | 11.3 | 12.9 | 0.00 | 0.00 | 0.00 | 64 | 1007.5 |
| 20260505055643 | 18 | 217 | 12.9 | 14.5 | 0.00 | 0.00 | 0.00 | 64 | 1007.5 |
| 20260505055140 | 18 | 231 | 9.7 | 11.3 | 0.00 | 0.00 | 0.00 | 64 | 1007.4 |
| 20260505054638 | 18 | 207 | 11.3 | 12.9 | 0.00 | 0.00 | 0.00 | 64 | 1007.3 |
| 20260505054135 | 18 | 209 | 8.0 | 9.7 | 0.00 | 0.00 | 0.00 | 64 | 1007.7 |
| 20260505053633 | 19 | 221 | 9.7 | 12.9 | 0.00 | 0.00 | 0.00 | 64 | 1007.3 |
| 20260505053129 | 19 | 215 | 6.4 | 9.7 | 0.00 | 0.00 | 0.00 | 64 | 1007.6 |
| 20260505052626 | 19 | 219 | 3.2 | 4.8 | 0.00 | 0.00 | 0.00 | 64 | 1007.6 |
| 20260505052124 | 18 | 204 | 8.0 | 11.3 | 0.00 | 0.00 | 0.00 | 64 | 1007.5 |
| 20260505051621 | 19 | 214 | 6.4 | 9.7 | 0.00 | 0.00 | 0.00 | 64 | 1007.6 |
| 20260505051119 | 19 | 232 | 6.4 | 6.4 | 0.00 | 0.00 | 0.00 | 64 | 1007.6 |
| 20260505050616 | 19 | 215 | 9.7 | 14.5 | 0.00 | 0.00 | 0.00 | 63 | 1007.7 |
| 20260505050114 | 19 | 225 | 11.3 | 12.9 | 0.00 | 0.00 | 0.00 | 63 | 1007.9 |
| 20260505041544 | 20 | 204 | 11.3 | 12.9 | 0.00 | 0.00 | 0.00 | 60 | 1007.9 |
| 20260505041041 | 20 | 204 | 9.7 | 11.3 | 0.00 | 0.00 | 0.00 | 61 | 1007.8 |
| 20260505040538 | 20 | 223 | 12.9 | 14.5 | 0.00 | 0.00 | 0.00 | 60 | 1007.7 |
| 20260505040036 | 20 | 216 | 9.7 | 12.9 | 0.00 | 0.00 | 0.00 | 60 | 1007.8 |
| 20260505035531 | 20 | 203 | 12.9 | 14.5 | 0.00 | 0.00 | 0.00 | 60 | 1007.7 |
| 20260505035028 | 20 | 236 | 6.4 | 9.7 | 0.00 | 0.00 | 0.00 | 60 | 1007.6 |
| 20260505034525 | 20 | 244 | 6.4 | 6.4 | 0.00 | 0.00 | 0.00 | 60 | 1007.6 |
| 20260505034022 | 20 | 204 | 6.4 | 9.7 | 0.00 | 0.00 | 0.00 | 59 | 1007.6 |
| 20260505033519 | 20 | 205 | 6.4 | 6.4 | 0.00 | 0.00 | 0.00 | 59 | 1007.7 |
| 20260505033017 | 20 | 201 | 11.3 | 14.5 | 0.00 | 0.00 | 0.00 | 58 | 1007.9 |
| 20260505032514 | 20 | 222 | 9.7 | 11.3 | 0.00 | 0.00 | 0.00 | 58 | 1007.6 |
| 20260505032010 | 20 | 202 | 9.7 | 12.9 | 0.00 | 0.00 | 0.00 | 58 | 1007.7 |
| 20260505031508 | 20 | 210 | 6.4 | 6.4 | 0.00 | 0.00 | 0.00 | 58 | 1007.6 |
| 20260505031004 | 20 | 202 | 6.4 | 6.4 | 0.00 | 0.00 | 0.00 | 58 | 1007.5 |
| 20260505030501 | 20 | 213 | 12.9 | 16.1 | 0.00 | 0.00 | 0.00 | 57 | 1007.4 |
| 20260505025956 | 20 | 218 | 11.3 | 12.9 | 0.00 | 0.00 | 0.00 | 57 | 1007.5 |
| 20260505025453 | 20 | 198 | 11.3 | 14.5 | 0.00 | 0.00 | 0.00 | 57 | 1007.4 |
| 20260505024952 | 20 | 193 | 9.7 | 11.3 | 0.00 | 0.00 | 0.00 | 57 | 1007.3 |
| 20260505024449 | 20 | 219 | 6.4 | 6.4 | 0.00 | 0.00 | 0.00 | 58 | 1007.6 |
| 20260505023946 | 20 | 215 | 4.8 | 4.8 | 0.00 | 0.00 | 0.00 | 57 | 1007.3 |
| 20260505023443 | 20 | 213 | 1.6 | 3.2 | 0.00 | 0.00 | 0.00 | 57 | 1007.5 |
| 20260505022940 | 21 | 163 | 6.4 | 6.4 | 0.00 | 0.00 | 0.00 | 56 | 1007.2 |
| 20260505022438 | 21 | 221 | 4.8 | 6.4 | 0.00 | 0.00 | 0.00 | 56 | 1007.3 |
| 20260505021935 | 21 | 200 | 9.7 | 11.3 | 0.00 | 0.00 | 0.00 | 55 | 1007.4 |
| 20260505021431 | 21 | 226 | 3.2 | 3.2 | 0.00 | 0.00 | 0.00 | 56 | 1007.2 |
| 20260505020927 | 21 | 226 | 6.4 | 6.4 | 0.00 | 0.00 | 0.00 | 55 | 1007.2 |
| 20260505020422 | 21 | 211 | 4.8 | 6.4 | 0.00 | 0.00 | 0.00 | 54 | 1006.9 |
| 20260505015919 | 21 | 203 | 6.4 | 6.4 | 0.00 | 0.00 | 0.00 | 54 | 1007.1 |
| 20260505015417 | 21 | 184 | 8.0 | 9.7 | 0.00 | 0.00 | 0.00 | 53 | 1007.2 |
| 20260505014914 | 21 | 203 | 6.4 | 6.4 | 0.00 | 0.00 | 0.00 | 54 | 1006.9 |
| 20260505014411 | 21 | 207 | 3.2 | 4.8 | 0.00 | 0.00 | 0.00 | 54 | 1006.8 |
| 20260505013908 | 22 | 174 | 4.8 | 4.8 | 0.00 | 0.00 | 0.00 | 53 | 1006.9 |
| 20260505013404 | 22 | 215 | 8.0 | 9.7 | 0.00 | 0.00 | 0.00 | 52 | 1006.9 |
| 20260505012903 | 22 | 224 | 9.7 | 14.5 | 0.00 | 0.00 | 0.00 | 52 | 1006.9 |
| 20260505012400 | 22 | 222 | 9.7 | 11.3 | 0.00 | 0.00 | 0.00 | 51 | 1006.9 |
| 20260505011856 | 22 | 196 | 17.7 | 22.5 | 0.00 | 0.00 | 0.00 | 51 | 1007.0 |
| 20260505011353 | 22 | 201 | 17.7 | 17.7 | 0.00 | 0.00 | 0.00 | 50 | 1006.9 |
| 20260505010849 | 22 | 207 | 16.1 | 17.7 | 0.00 | 0.00 | 0.00 | 50 | 1006.8 |
| 20260505010345 | 22 | 198 | 9.7 | 11.3 | 0.00 | 0.00 | 0.00 | 50 | 1007.1 |
| 20260505005842 | 22 | 208 | 11.3 | 12.9 | 0.00 | 0.00 | 0.00 | 50 | 1006.8 |
| 20260505005338 | 23 | 216 | 12.9 | 17.7 | 0.00 | 0.00 | 0.00 | 49 | 1007.0 |
| 20260505004836 | 23 | 225 | 12.9 | 14.5 | 0.00 | 0.00 | 0.00 | 49 | 1006.7 |
| 20260505004332 | 23 | 181 | 11.3 | 17.7 | 0.00 | 0.00 | 0.00 | 49 | 1006.6 |
| 20260505003830 | 23 | 229 | 12.9 | 16.1 | 0.00 | 0.00 | 0.00 | 48 | 1006.7 |
| 20260505003327 | 23 | 218 | 11.3 | 12.9 | 0.00 | 0.00 | 0.00 | 48 | 1006.8 |
| 20260505002823 | 23 | 236 | 6.4 | 9.7 | 0.00 | 0.00 | 0.00 | 47 | 1006.8 |
| 20260505002320 | 23 | 231 | 9.7 | 12.9 | 0.00 | 0.00 | 0.00 | 46 | 1006.9 |
| 20260505001818 | 24 | 186 | 6.4 | 9.7 | 0.00 | 0.00 | 0.00 | 45 | 1007.0 |
| 20260505001314 | 24 | 231 | 6.4 | 9.7 | 0.00 | 0.00 | 0.00 | 46 | 1006.9 |
| 20260505000812 | 24 | 213 | 8.0 | 9.7 | 0.00 | 0.00 | 0.00 | 44 | 1006.7 |
| 20260505000310 | 25 | 205 | 11.3 | 12.9 | 0.00 | 0.00 | 0.00 | 44 | 1006.9 |
| 20260504235806 | 25 | 234 | 12.9 | 17.7 | 0.00 | 0.00 | 0.00 | 43 | 1006.9 |
| 20260504235304 | 25 | 240 | 14.5 | 16.1 | 0.00 | 0.00 | 0.00 | 43 | 1006.9 |
| 20260504234800 | 25 | 234 | 19.3 | 29.0 | 0.00 | 0.00 | 0.00 | 42 | 1007.0 |
| 20260504234258 | 25 | 275 | 11.3 | 14.5 | 0.00 | 0.00 | 0.00 | 42 | 1007.0 |
| 20260504233753 | 25 | 230 | 9.7 | 11.3 | 0.00 | 0.00 | 0.00 | 41 | 1007.0 |
| 20260504233249 | 25 | 218 | 8.0 | 12.9 | 0.00 | 0.00 | 0.00 | 41 | 1007.1 |
| 20260504232746 | 25 | 199 | 14.5 | 20.9 | 0.00 | 0.00 | 0.00 | 40 | 1007.0 |
| 20260504232243 | 25 | 216 | 19.3 | 24.1 | 0.00 | 0.00 | 0.00 | 40 | 1007.1 |
| 20260504231740 | 25 | 234 | 22.5 | 27.4 | 0.00 | 0.00 | 0.00 | 40 | 1007.0 |
| 20260504231237 | 25 | 232 | 11.3 | 14.5 | 0.00 | 0.00 | 0.00 | 42 | 1007.4 |
| 20260504230732 | 25 | 215 | 12.9 | 16.1 | 0.00 | 0.00 | 0.00 | 42 | 1007.0 |
| 20260504230231 | 25 | 232 | 17.7 | 17.7 | 0.00 | 0.00 | 0.00 | 41 | 1006.9 |
| 20260504225730 | 25 | 210 | 11.3 | 14.5 | 0.00 | 0.00 | 0.00 | 41 | 1007.1 |
| 20260504225226 | 25 | 270 | 20.9 | 25.7 | 0.00 | 0.00 | 0.00 | 41 | 1007.1 |
| 20260504224723 | 25 | 252 | 27.4 | 37.0 | 0.00 | 0.00 | 0.00 | 41 | 1007.0 |
| 20260504224220 | 26 | 237 | 12.9 | 14.5 | 0.00 | 0.00 | 0.00 | 41 | 1007.0 |
| 20260504223716 | 25 | 226 | 8.0 | 12.9 | 0.00 | 0.00 | 0.00 | 41 | 1007.0 |
| 20260504223212 | 26 | 215 | 16.1 | 22.5 | 0.00 | 0.00 | 0.00 | 40 | 1007.1 |
| 20260504222709 | 26 | 238 | 14.5 | 17.7 | 0.00 | 0.00 | 0.00 | 40 | 1007.0 |
| 20260504222206 | 26 | 235 | 12.9 | 14.5 | 0.00 | 0.00 | 0.00 | 41 | 1007.1 |
| 20260504221703 | 26 | 215 | 17.7 | 17.7 | 0.00 | 0.00 | 0.00 | 41 | 1007.0 |
| 20260504221201 | 26 | 188 | 17.7 | 22.5 | 0.00 | 0.00 | 0.00 | 41 | 1006.9 |
| 20260504220656 | 26 | 233 | 8.0 | 9.7 | 0.00 | 0.00 | 0.00 | 41 | 1007.1 |
| 20260504220155 | 26 | 223 | 19.3 | 22.5 | 0.00 | 0.00 | 0.00 | 40 | 1007.1 |
| 20260504215651 | 26 | 206 | 17.7 | 20.9 | 0.00 | 0.00 | 0.00 | 42 | 1006.9 |
| 20260504215148 | 26 | 200 | 11.3 | 14.5 | 0.00 | 0.00 | 0.00 | 41 | 1006.9 |
| 20260504214644 | 26 | 215 | 27.4 | 37.0 | 0.00 | 0.00 | 0.00 | 40 | 1007.0 |
| 20260504214140 | 26 | 200 | 12.9 | 14.5 | 0.00 | 0.00 | 0.00 | 42 | 1007.0 |
| 20260504213637 | 26 | 200 | 24.1 | 29.0 | 0.00 | 0.00 | 0.00 | 41 | 1006.9 |
| 20260504213134 | 26 | 234 | 17.7 | 22.5 | 0.00 | 0.00 | 0.00 | 42 | 1006.8 |
| 20260504212630 | 26 | 200 | 27.4 | 30.6 | 0.00 | 0.00 | 0.00 | 41 | 1007.2 |
| 20260504212127 | 26 | 194 | 17.7 | 20.9 | 0.00 | 0.00 | 0.00 | 40 | 1007.1 |
| 20260504211625 | 26 | 192 | 30.6 | 35.4 | 0.00 | 0.00 | 0.00 | 40 | 1007.0 |
| 20260504211121 | 26 | 218 | 22.5 | 25.7 | 0.00 | 0.00 | 0.00 | 42 | 1007.4 |
| 20260504210619 | 26 | 222 | 20.9 | 24.1 | 0.00 | 0.00 | 0.00 | 41 | 1007.1 |
| 20260504210115 | 26 | 218 | 27.4 | 30.6 | 0.00 | 0.00 | 0.00 | 41 | 1007.2 |
| 20260504205613 | 26 | 221 | 20.9 | 25.7 | 0.00 | 0.00 | 0.00 | 42 | 1007.3 |
| 20260504205110 | 26 | 248 | 24.1 | 29.0 | 0.00 | 0.00 | 0.00 | 42 | 1007.3 |
| 20260504204609 | 26 | 225 | 24.1 | 27.4 | 0.00 | 0.00 | 0.00 | 42 | 1007.1 |
| 20260504204107 | 26 | 237 | 20.9 | 25.7 | 0.00 | 0.00 | 0.00 | 42 | 1007.4 |
| 20260504203605 | 25 | 230 | 16.1 | 24.1 | 0.00 | 0.00 | 0.00 | 43 | 1007.7 |
| 20260504203102 | 26 | 239 | 16.1 | 20.9 | 0.00 | 0.00 | 0.00 | 44 | 1007.6 |
| 20260504202557 | 26 | 244 | 25.7 | 30.6 | 0.00 | 0.00 | 0.00 | 41 | 1007.7 |
| 20260504202054 | 26 | 249 | 14.5 | 20.9 | 0.00 | 0.00 | 0.00 | 41 | 1007.9 |
| 20260504201551 | 26 | 221 | 9.7 | 12.9 | 0.00 | 0.00 | 0.00 | 41 | 1007.7 |
| 20260504201049 | 26 | 216 | 17.7 | 22.5 | 0.00 | 0.00 | 0.00 | 41 | 1008.2 |
| 20260504200545 | 26 | 203 | 16.1 | 20.9 | 0.00 | 0.00 | 0.00 | 42 | 1008.0 |
| 20260504200042 | 26 | 225 | 29.0 | 33.8 | 0.00 | 0.00 | 0.00 | 41 | 1007.9 |
| 20260504195538 | 26 | 202 | 17.7 | 20.9 | 0.00 | 0.00 | 0.00 | 42 | 1008.3 |
| 20260504195035 | 25 | 213 | 24.1 | 30.6 | 0.00 | 0.00 | 0.00 | 41 | 1008.4 |
| 20260504194531 | 25 | 226 | 37.0 | 46.7 | 0.00 | 0.00 | 0.00 | 41 | 1008.4 |
| 20260504194027 | 26 | 215 | 19.3 | 24.1 | 0.00 | 0.00 | 0.00 | 41 | 1008.4 |
| 20260504193524 | 26 | 218 | 19.3 | 22.5 | 0.00 | 0.00 | 0.00 | 43 | 1008.6 |
| 20260504193023 | 26 | 203 | 20.9 | 22.5 | 0.00 | 0.00 | 0.00 | 42 | 1008.5 |
| 20260504192520 | 26 | 212 | 12.9 | 17.7 | 0.00 | 0.00 | 0.00 | 41 | 1008.7 |
| 20260504192018 | 26 | 255 | 12.9 | 14.5 | 0.00 | 0.00 | 0.00 | 43 | 1008.7 |
| 20260504191516 | 25 | 233 | 22.5 | 25.7 | 0.00 | 0.00 | 0.00 | 44 | 1008.6 |
| 20260504191012 | 25 | 214 | 20.9 | 24.1 | 0.00 | 0.00 | 0.00 | 43 | 1008.6 |
| 20260504190508 | 25 | 173 | 22.5 | 30.6 | 0.00 | 0.00 | 0.00 | 43 | 1008.8 |
| 20260504190004 | 25 | 239 | 24.1 | 30.6 | 0.00 | 0.00 | 0.00 | 43 | 1008.8 |
| 20260504185501 | 25 | 184 | 17.7 | 20.9 | 0.00 | 0.00 | 0.00 | 44 | 1009.0 |
| 20260504184958 | 26 | 196 | 24.1 | 30.6 | 0.00 | 0.00 | 0.00 | 42 | 1008.9 |
| 20260504184453 | 25 | 241 | 11.3 | 17.7 | 0.00 | 0.00 | 0.00 | 45 | 1009.2 |
| 20260504183949 | 25 | 210 | 27.4 | 29.0 | 0.00 | 0.00 | 0.00 | 43 | 1009.0 |
| 20260504183446 | 25 | 204 | 20.9 | 25.7 | 0.00 | 0.00 | 0.00 | 43 | 1009.2 |
| 20260504182944 | 25 | 247 | 25.7 | 30.6 | 0.00 | 0.00 | 0.00 | 43 | 1009.2 |
| 20260504182441 | 25 | 206 | 24.1 | 29.0 | 0.00 | 0.00 | 0.00 | 45 | 1009.5 |
| 20260504181938 | 25 | 224 | 22.5 | 30.6 | 0.00 | 0.00 | 0.00 | 46 | 1009.4 |
| 20260504181435 | 25 | 220 | 11.3 | 16.1 | 0.00 | 0.00 | 0.00 | 47 | 1009.4 |
| 20260504180934 | 25 | 196 | 17.7 | 20.9 | 0.00 | 0.00 | 0.00 | 46 | 1009.4 |
| 20260504180432 | 25 | 228 | 14.5 | 16.1 | 0.00 | 0.00 | 0.00 | 47 | 1009.5 |
| 20260504175930 | 25 | 208 | 27.4 | 30.6 | 0.00 | 0.00 | 0.00 | 46 | 1009.8 |
| 20260504175427 | 25 | 187 | 14.5 | 16.1 | 0.00 | 0.00 | 0.00 | 46 | 1009.7 |
| 20260504174925 | 25 | 224 | 20.9 | 25.7 | 0.00 | 0.00 | 0.00 | 45 | 1009.9 |
| 20260504174422 | 25 | 199 | 19.3 | 22.5 | 0.00 | 0.00 | 0.00 | 47 | 1009.9 |
| 20260504173919 | 25 | 262 | 6.4 | 11.3 | 0.00 | 0.00 | 0.00 | 49 | 1009.8 |
| 20260504173416 | 24 | 279 | 9.7 | 14.5 | 0.00 | 0.00 | 0.00 | 47 | 1009.8 |
| 20260504172913 | 24 | 277 | 20.9 | 27.4 | 0.00 | 0.00 | 0.00 | 48 | 1010.0 |
| 20260504172409 | 24 | 209 | 14.5 | 20.9 | 0.00 | 0.00 | 0.00 | 48 | 1010.1 |
| 20260504171905 | 24 | 241 | 9.7 | 14.5 | 0.00 | 0.00 | 0.00 | 52 | 1010.1 |
| 20260504171403 | 25 | 320 | 14.5 | 22.5 | 0.00 | 0.00 | 0.00 | 48 | 1010.3 |
| 20260504170900 | 23 | 277 | 14.5 | 16.1 | 0.00 | 0.00 | 0.00 | 51 | 1010.5 |
| 20260504170356 | 23 | 230 | 19.3 | 27.4 | 0.00 | 0.00 | 0.00 | 51 | 1010.4 |
| 20260504160315 | 23 | 237 | 9.7 | 11.3 | 0.00 | 0.00 | 0.00 | 54 | 1011.0 |
| 20260504150739 | 22 | 202 | 8.0 | 9.7 | 0.00 | 0.00 | 0.00 | 61 | 1011.4 |
| 20260504150236 | 22 | 175 | 11.3 | 16.1 | 0.00 | 0.00 | 0.00 | 61 | 1011.3 |
| 20260504141206 | 20 | 204 | 11.3 | 14.5 | 0.00 | 0.00 | 0.00 | 68 | 1011.5 |
| 20260504140703 | 20 | 225 | 12.9 | 14.5 | 0.00 | 0.00 | 0.00 | 68 | 1011.7 |
| 20260504140158 | 20 | 253 | 11.3 | 14.5 | 0.00 | 0.00 | 0.00 | 69 | 1011.6 |
| 20260504130626 | 17 | 197 | 3.2 | 4.8 | 0.00 | 0.00 | 0.00 | 77 | 1011.5 |
| 20260504130123 | 16 | 200 | 4.8 | 4.8 | 0.00 | 0.00 | 0.00 | 77 | 1011.2 |